Weather Roundup
Issued by NWS Springfield, MO

Home | Current Version | Previous Version | Text Only | Print | Product List | Glossary On
Versions: 1 2 3 4 5 6 7 8 9 10 11 12 13 14 15 16 17 18 19 20 21 22 23 24 25 26 27 28 29 30 31 32 33 34 35 36 37 38 39 40 41 42 43 44 45 46 47 48 49 50
705
NZUS99 KSGF 070007
HRRSGF

HOURLY WEATHER
NATIONAL WEATHER SERVICE SPRINGFIELD MO
600 PM CST SAT FEB 06 2016

......SGF CWA......

CITY           SKY/WX    TMP DP  RH WIND       PRES   REMARKS
SPRINGFIELD    CLEAR     48  25  40 W8        30.22S
6HR MIN TEMP:  48; 6HR MAX TEMP:  54;

JOPLIN         CLEAR     46  30  53 SW6       30.25F
6HR MIN TEMP:  46; 6HR MAX TEMP:  53;

WEST PLAINS    CLEAR     46  17  31 S6        30.24F
6HR MIN TEMP:  46; 6HR MAX TEMP:  54;

ROLLA          CLEAR     46  27  47 SW9       30.18F
6HR MIN TEMP:  45; 6HR MAX TEMP:  55;

OSAGE BEACH    CLEAR     50  27  40 SW8       30.21S
BRANSON        PTCLDY    48  23  37 SW7       30.25S

......SURROUNDING SGF CWA......

CITY           SKY/WX    TMP DP  RH WIND       PRES   REMARKS
CHANUTE        PTCLDY    44  27  51 SW8       30.23S
PARSONS        CLEAR     46  26  45 W7        30.25S
COFFEYVILLE    CLEAR     47  26  44 W8        30.26S
EMPORIA        CLEAR     40  26  57 SW7       30.19F
GROVE OK       PTCLDY    46  32  57 SW3       30.27F
ROGERS AR      CLEAR     47  27  45 SW7       30.25F
SILOAM SPRINGS CLEAR     46  25  42 W6        30.26F
HARRISON AR    CLEAR     49  22  34 W3        30.25S
NEAR YELLVILLE CLEAR     52  18  25 CALM      30.23F

......KANSAS AND MISSOURI......

CITY           SKY/WX    TMP DP  RH WIND       PRES   REMARKS
KANSAS CTY INT PTCLDY    41  29  62 SW9       30.16F
DOWNTOWN KC    CLEAR     47  28  47 SW7       30.18F
COLUMBIA       CLEAR     47  27  45 W9        30.19S
SEDALIA        CLEAR     44  27  51 SW7       30.21S
ST JOSEPH      CLEAR     42  29  59 SW9       30.15F
ST LOUIS       PTCLDY    50  26  39 SW6       30.19F
SPIRIT OF STL  PTCLDY    48  27  44 SW6       30.19S
KIRKSVILLE     CLEAR     41  28  60 SW6       30.15F
WICHITA        PTCLDY    44  26  49 S12       30.20F
TOPEKA         CLEAR     47  27  45 SW7       30.17F
OLATHE         CLEAR     43  27  53 SW6       30.19F

......TENNESSEE......

CITY           SKY/WX    TMP DP  RH WIND       PRES   REMARKS
MEMPHIS        PTCLDY    48  22  35 W5        30.30S
NASHVILLE      MOCLDY    48  16  27 CALM      30.29S

......ARKANSAS.......

CITY           SKY/WX    TMP DP  RH WIND       PRES   REMARKS
FAYETTEVILLE   CLEAR     47  25  42 W6        30.26S
FT SMITH       CLEAR     51  19  28 W5        30.29S
LITTLE ROCK    PTCLDY    47  22  37 SE6       30.30S

......OKLAHOMA.......

CITY           SKY/WX    TMP DP  RH WIND       PRES   REMARKS
TULSA          PTCLDY    49  29  46 W8        30.26S
PONCA CITY     CLEAR     46  26  45 SW5       30.24F
MCALESTER      PTCLDY    51  31  46 W3        30.30S
OKLAHOMA CITY  PTCLDY    47  26  44 SW5       30.27F

......IOWA............

CITY           SKY/WX    TMP DP  RH WIND       PRES   REMARKS
DES MOINES     PTCLDY    35  29  78 S12       30.08F WCI  27
QUAD CITIES    PTCLDY    35  28  75 S3        30.13F

......ILLINOIS........

CITY           SKY/WX    TMP DP  RH WIND       PRES   REMARKS
QUINCY         CLEAR     43  25  49 W8        30.16S
CHICAGO        PTCLDY    37  28  70 SW7       30.14S WCI  32




USA.gov is the U.S. government's official web portal to all federal, state and local government web resources and services.